Kenai, AK

7:47 AM AKST on December 10, 2019 (GMT -0900)
Kenai Municipal

Weather History for PAEN - October, 2019

Change the Weather History Date:

Thursday, October 31, 2019

  Actual Average Record
Temperature  
Mean Temperature 34 °F -  
Max Temperature 41 °F 34 °F 52 °F (2016)
Min Temperature 28 °F 19 °F -8 °F (1961)
Degree Days  
Heating Degree Days 30    
Moisture  
Dew Point 34 °F    
Average Humidity 90    
Maximum Humidity 93    
Minimum Humidity 82    
Precipitation  
Precipitation 0.10 in - - ()
Sea Level Pressure  
Sea Level Pressure 30.04 in    
Wind  
Wind Speed 7 mph (NNE)    
Max Wind Speed 17 mph    
Max Gust Speed 25 mph    
Visibility 10 miles    
Events Rain    
Averages and records for this station are not official NWS values.
T = Trace of Precipitation, MM = Missing Value Source: NWS Daily Summary

Daily Weather History Graph

Daily Weather History Graph

Search for Another Location

Airport or City:

Astronomy

Oct. 31, 2019 Rise Set
Actual Time 9:27 AM AKDT 6:08 PM AKDT
Civil Twilight 8:41 AM AKDT 6:54 PM AKDT
Nautical Twilight 7:50 AM AKDT 7:45 PM AKDT
Astronomical Twilight 7:01 AM AKDT 8:33 PM AKDT
Moon 2:23 PM AKDT (10/31) 8:15 PM AKDT (10/31)
Length of Visible Light 10h 13m
Length of Day
8h 41m
Waxing Crescent, 17% of the Moon is Illuminated
Oct 31
Waxing Crescent
Nov 4
First Quarter
Nov 12
Full
Nov 19
Last Quarter
Nov 26
New

Hourly Weather History & Observations

Time (AKDT) Temp. Windchill Dew Point Humidity Pressure Visibility Wind Dir Wind Speed Gust Speed Precip Events Conditions
12:10 AM 39.0 °F 34.8 °F 36.0 °F 89% 30.14 in 10.0 mi SE 5.8 mph - N/A   Scattered Clouds
12:53 AM 37.0 °F 34.5 °F 34.0 °F 89% 30.15 in 10.0 mi SE 3.5 mph - N/A   Clear
1:53 AM 35.1 °F - 32.0 °F 89% 30.15 in 10.0 mi Calm Calm - N/A   Partly Cloudy
2:53 AM 30.9 °F - 28.9 °F 92% 30.16 in 10.0 mi Calm Calm - N/A   Partly Cloudy
3:53 AM 33.1 °F 30.0 °F 30.9 °F 92% 30.15 in 10.0 mi East 3.5 mph - N/A   Scattered Clouds
4:02 AM 32.0 °F 28.7 °F 30.0 °F 92% 30.14 in 10.0 mi ENE 3.5 mph - N/A   Mostly Cloudy
4:38 AM 30.9 °F 26.2 °F 28.9 °F 92% 30.13 in 10.0 mi ENE 4.6 mph - N/A   Partly Cloudy
4:53 AM 28.9 °F 25.2 °F 27.0 °F 92% 30.13 in 10.0 mi ENE 3.5 mph - N/A   Clear
5:53 AM 30.9 °F - 28.9 °F 92% 30.12 in 10.0 mi Calm Calm - N/A   Clear
6:53 AM 30.9 °F 25.2 °F 28.9 °F 92% 30.10 in 10.0 mi NE 5.8 mph - N/A   Mostly Cloudy
8:53 AM 35.1 °F 28.6 °F 33.1 °F 92% 30.09 in 10.0 mi NNE 8.1 mph - N/A   Overcast
9:00 AM 36.0 °F 30.3 °F 33.1 °F 89% 30.08 in 10.0 mi NNE 6.9 mph - N/A   Overcast
9:53 AM 36.0 °F 29.6 °F 34.0 °F 93% 30.09 in 10.0 mi North 8.1 mph - N/A   Overcast
10:53 AM 37.0 °F 30.4 °F 35.1 °F 93% 30.08 in 9.0 mi North 9.2 mph - 0.00 in Rain Light Rain
11:53 AM 39.0 °F 31.4 °F 37.0 °F 93% 30.06 in 10.0 mi North 12.7 mph - 0.02 in Rain Light Rain
12:53 PM 39.9 °F 32.5 °F 37.9 °F 93% 30.05 in 7.0 mi North 12.7 mph - 0.02 in Rain Light Rain
1:10 PM 39.9 °F 32.5 °F 37.9 °F 93% 30.04 in 6.0 mi North 12.7 mph - 0.03 in Rain Light Rain
1:34 PM 39.9 °F 32.5 °F 37.9 °F 93% 30.03 in 10.0 mi NNE 12.7 mph - 0.05 in Rain Light Rain
1:53 PM 39.9 °F 32.1 °F 37.9 °F 93% 30.02 in 10.0 mi North 13.8 mph - 0.06 in Rain Light Rain
3:53 PM 41.0 °F 32.5 °F 37.9 °F 89% 29.96 in 10.0 mi NNE 17.3 mph - 0.00 in   Overcast
4:53 PM 41.0 °F 32.5 °F 37.0 °F 86% 29.93 in 10.0 mi NNE 17.3 mph 25.3 mph N/A   Overcast
5:53 PM 39.9 °F 31.4 °F 37.0 °F 89% 29.92 in 10.0 mi NNE 16.1 mph - 0.00 in   Overcast
6:53 PM 39.9 °F 31.1 °F 36.0 °F 86% 29.91 in 10.0 mi NNE 17.3 mph - N/A   Overcast
7:53 PM 39.9 °F 31.8 °F 37.0 °F 89% 29.90 in 10.0 mi North 15.0 mph - N/A   Overcast
8:53 PM 41.0 °F 32.8 °F 36.0 °F 82% 29.90 in 10.0 mi NNE 16.1 mph - N/A   Overcast
9:53 PM 41.0 °F 32.8 °F 37.4 °F 87% 29.89 in 10.0 mi NNE 16.1 mph - N/A   Overcast
10:53 PM 39.9 °F 31.4 °F 36.0 °F 86% 29.90 in 10.0 mi North 16.1 mph - N/A   Overcast
11:53 PM 39.9 °F 31.8 °F 36.0 °F 86% 29.89 in 10.0 mi NNE 15.0 mph 23.0 mph N/A   Overcast